[Iaude] MPEC N53: 2016 EH362 [a=67.71,e=0.78,i=8.3,H=9.4]
    mpec at cfa.harvard.edu 
    mpec at cfa.harvard.edu
       
    Fri Jul  5 11:05:43 EDT 2024
    
    
  
M.P.E.C. 2024-N53                                  Issued 2024 July 5, 15:03 UT
     The Minor Planet Electronic Circulars contain information on unusual
         minor planets, routine data on comets and natural satellites,
         and occasional editorial announcements.  They are published
    on behalf of Division F of the International Astronomical Union by the
          Minor Planet Center, Smithsonian Astrophysical Observatory,
                          Cambridge, MA 02138, U.S.A.
			  
             Prepared using the Tamkin Foundation Computer Network
                              MPC at CFA.HARVARD.EDU
            URL https://www.minorplanetcenter.net/    ISSN 1523-6714
                                   2016 EH362                                   
Observations:
     K16Ea2H 1C2015 01 21.60267309 58 39.19 +03 19 20.3                WEN053T09
     K16Ea2H*1C2016 03 04.42618510 00 46.11 +03 08 11.9                WEN053T09
     K16Ea2H 1C2016 03 09.29952210 00 20.35 +03 10 57.2                WEN053T09
     K16Ea2H 1C2017 03 06.52956010 06 22.21 +02 39 07.1                WEN053T09
     K16Ea2H 4C2017 03 22.38749 10 05 04.70 +02 47 59.7          25.2 z1EN053T09
     K16Ea2H 4C2017 03 22.41317 10 05 04.57 +02 48 00.5          24.9 z1EN053T09
     K16Ea2H 4C2017 03 22.43886 10 05 04.44 +02 48 01.4          24.5 z1EN053T09
     K16Ea2H 4C2017 03 22.48627 10 05 04.24 +02 48 02.9          24.4 z1EN053T09
     K16Ea2H 1C2017 03 29.28924210 04 35.37 +02 51 45.4                WEN053T09
     K16Ea2H 1C2017 03 29.30317610 04 35.30 +02 51 45.5                WEN053T09
     K16Ea2H 1C2018 01 17.49401310 15 56.07 +01 49 17.2                WEN053T09
     K16Ea2H 1C2019 04 05.33729310 14 52.02 +01 58 50.2                WEN053T09
     K16Ea2H 1C2019 04 05.37807610 14 51.87 +01 58 51.5                WEN053T09
Observer details:
T09 Subaru Telescope, Maunakea.  Observers , H. Aihara, Y. AlSayyad, M. Ando,
    R. Armstrong, J. Bosch, E. Egami, H. Furusawa, J. Furusawa, S. Harasawa,
    Y. Harikane, B.-C. Hsieh, H. Ikeda, K. Ito, I. Iwata, T. Kodama, M. Koike,
    M. Kokubo, Y. Komiyama, X. Li, Y. Liang, Y.-T. Lin, R. H. Lupton, N. B.
    Lust, L. A. MacArthur, K. Mawatari, S. Mineo, H. Miyatake, S. Miyazaki, S.
    More, T. Morishima, H. Murayama, K. Nakajima, F. Nakata, A. J. Nishizawa,
    M. Oguri, N. Okabe, Y. Okura, Y. Ono, K. Osato, M. Ouchi, Y.-C. Pan, A. A.
    Plazas Malagon, P. A. Price, S. L. Reed, E. S. Rykoff, T. Shibuya, M.
    Simunovic, M. A. Strauss, K. Sugimori, Y. Suto, N. Suzuki, M. Takada, Y.
    Takagi, T. Takata, S. Takita, M. Tanaka, S. Tang, D. S. Taranu, T. Terai,
    Y. Toba, E. L. Turner, H. Uchiyama, B. Vijarnwannaluk, C. Z. Waters, Y.
    Yamada, N. Yamamoto, T. Yamashita.  Measurers S. Deen, H. Fukuyama.  8.3-m
    Subaru Telescope + CCD, 8.2-m f/2.0 reflector + CCD(HSC).
Orbital elements:
2016 EH362                                                                      
Epoch 2024 Mar. 31.0 TT = JDT 2460400.5                 Alexandersen            
M  21.86502              (2000.0)            P               Q                  
n   0.00176880     Peri.  169.45320     +0.72836363     -0.67520477             
a  67.7148829      Node   233.66752     +0.61764649     +0.72064000             
e   0.7808124      Incl.    8.31885     +0.29664666     +0.15740554             
P 557              H    9.47          G   0.15           U   5                  
Residuals in seconds of arc
150121 T09  0.0   0.1+    170322 T09  0.1-  0.0     180117 T09  0.0   0.0
160304 T09  0.1+  0.1+    170322 T09  0.3-  0.0     190405 T09  0.0   0.0
160309 T09  0.0   0.0     170322 T09  0.0   0.0     190405 T09  0.0   0.1+
170306 T09  0.0   0.2-    170329 T09  0.2+  0.1+
170322 T09  0.1+  0.0     170329 T09  0.0   0.2-
Ephemeris:
2016 EH362               a,e,i = 67.71, 0.78, 8                  q = 14.8423
Date    TT    R. A. (2000) Decl.     Delta      r    Elong.  Phase     V
2024 06 05    10 36 12.9 +00 18 08  42.2811 42.2237    86.1     1.4    25.9
...
2024 06 20    10 36 41.1 +00 18 23  42.5614 42.2581    72.0     1.3    25.9
...
2024 06 28    10 37 03.4 +00 17 41  42.7037 42.2765    64.5     1.2    25.9
...
2024 07 04    10 37 23.2 +00 16 46  42.8056 42.2902    59.0     1.2    25.9
2024 07 05    10 37 26.7 +00 16 36  42.8221 42.2925    58.0     1.2    25.9
2024 07 06    10 37 30.3 +00 16 24  42.8384 42.2948    57.1     1.2    25.9
...
2024 07 12    10 37 53.3 +00 15 05  42.9331 42.3085    51.6     1.1    25.9
...
2024 07 20    10 38 27.3 +00 12 51  43.0495 42.3269    44.2     1.0    25.9
...
2024 08 04    10 39 39.6 +00 07 21  43.2320 42.3612    30.5     0.7    25.9
M. P. C. Staff               (C) Copyright 2024 MPC           M.P.E.C. 2024-N53
    
    
More information about the Iaude
mailing list